Theta_e
338 338 338 336 336 337 338 340 341 341 340 340 337 325 325 335 337 338 338 336 335 334 333 326 318 315 313 321 332 330 329 332 333 333 332 332 333 333 334 335 335 335 336 336 336 336 335 336 335 336 338 339
337 337 337 337 336 336 337 339 340 341 340 340 339 329 328 335 337 339 339 337 337 335 334 328 319 317 313 315 328 330 328 331 331 332 332 331 332 332 332 333 334 334 335 335 335 336 335 336 336 336 337 338
335 336 336 336 336 336 337 339 340 341 340 340 340 334 332 337 338 339 339 338 338 336 335 330 321 317 314 314 325 329 328 330 331 331 332 332 332 331 331 331 332 334 335 335 335 335 335 336 336 336 336 337
330 333 335 335 335 336 337 338 340 340 341 341 341 338 336 338 339 339 340 339 339 338 335 332 325 318 315 313 321 328 329 329 330 331 331 332 332 332 331 330 330 332 333 335 335 335 335 335 335 335 335 336
331 329 329 331 333 334 336 338 340 340 340 342 341 339 338 338 340 340 340 340 339 338 336 334 328 321 317 313 314 323 329 329 330 331 330 330 331 331 331 331 330 330 331 332 334 334 335 335 335 334 334 335
336 332 329 328 329 332 335 336 338 340 340 341 342 340 340 340 340 340 340 340 339 339 337 335 332 324 319 316 311 315 324 327 327 328 329 329 329 330 331 330 330 330 329 330 332 333 334 334 334 334 334 334
338 337 334 332 331 331 333 335 337 340 341 341 341 340 340 340 340 341 340 340 339 339 338 336 334 328 322 319 316 312 314 318 320 322 326 326 326 327 328 329 329 329 329 328 329 330 332 333 333 333 332 332
335 334 333 333 333 332 332 334 337 340 340 340 340 340 340 340 340 340 340 340 339 338 338 337 335 332 327 323 320 318 314 314 316 318 319 318 318 319 320 323 327 328 328 328 328 329 329 330 331 331 331 331
334 335 334 331 332 333 332 333 338 341 340 340 339 338 340 340 340 341 340 340 339 338 338 337 336 333 330 326 324 322 320 318 319 320 320 318 319 322 320 322 326 326 327 327 327 328 328 328 328 329 330 330
336 336 334 333 335 335 334 334 338 341 340 340 339 338 339 340 340 340 340 339 338 338 338 338 337 334 332 329 325 323 325 325 324 325 328 327 327 329 328 326 327 327 327 327 327 328 328 328 328 328 328 329
337 336 334 335 338 338 337 336 337 339 340 341 340 338 339 340 340 339 339 338 337 337 338 338 337 335 333 331 327 325 328 331 329 329 331 331 329 330 330 329 328 328 327 327 327 327 327 327 327 326 326 327
337 337 336 337 338 338 338 338 338 339 340 341 340 339 338 339 340 340 339 338 337 337 337 338 337 336 333 332 332 329 330 333 331 330 332 332 330 330 330 329 328 328 328 327 327 327 327 327 326 323 322 323
337 337 337 337 338 338 339 339 338 339 340 340 340 339 338 339 340 340 340 339 339 338 338 338 337 336 335 334 335 331 330 332 332 331 331 331 331 330 330 330 329 328 328 328 328 328 328 328 327 325 323 323
338 338 337 337 337 338 338 338 339 340 340 340 340 340 339 339 339 339 339 339 339 339 339 339 337 337 336 335 336 332 330 331 330 330 330 331 331 330 330 330 330 330 330 329 329 329 329 329 329 328 328 328
338 338 338 337 337 337 338 338 339 339 338 339 339 340 340 340 339 339 340 339 339 339 339 339 338 337 336 336 336 334 332 331 330 330 330 330 330 330 330 330 330 330 330 330 329 329 329 329 329 329 329 330
339 339 338 338 337 338 338 338 338 338 337 337 337 338 339 339 339 338 338 338 338 339 339 339 339 337 336 335 335 335 334 332 331 330 330 330 329 330 330 330 330 330 330 329 330 330 330 330 329 329 330 330
338 338 337 336 337 337 338 338 338 338 337 337 336 337 337 337 337 337 337 337 337 337 338 339 339 338 336 335 335 335 334 334 332 330 330 330 329 330 330 330 330 331 331 330 330 331 331 331 331 331 331 331
337 338 337 336 336 337 337 338 338 338 337 337 336 336 336 336 336 337 337 336 336 336 337 338 338 338 337 335 335 335 334 334 333 331 330 329 329 329 329 329 330 330 331 330 330 330 331 332 331 331 332 332
336 337 337 337 337 337 337 337 337 337 337 337 336 335 335 335 335 336 336 336 336 336 336 336 336 336 336 336 335 335 334 333 333 332 331 330 329 329 329 328 329 330 330 330 330 330 330 331 331 331 332 332
334 335 336 337 337 337 336 336 336 336 336 336 336 335 334 334 334 335 336 335 335 335 335 335 335 335 335 335 335 335 335 333 332 332 332 331 330 330 329 328 328 329 330 330 330 330 330 331 332 332 332 333
334 334 335 335 335 335 335 335 336 336 335 335 335 335 334 333 333 334 334 335 334 334 335 335 335 335 335 335 335 335 335 334 332 331 331 332 331 330 329 329 328 328 329 330 330 330 330 330 331 332 333 333
335 333 333 334 334 333 334 334 335 335 335 335 335 334 334 333 333 333 333 334 334 334 334 334 334 334 334 334 335 335 335 334 333 332 332 332 332 330 329 328 328 328 329 329 329 329 330 330 330 331 332 333
334 334 333 333 334 333 332 333 334 334 334 335 335 334 334 333 333 333 333 333 333 334 333 333 334 334 335 335 335 335 335 334 333 333 332 332 332 331 329 327 327 328 329 329 329 330 330 331 332 332 333 333
333 334 334 334 334 333 332 334 333 333 333 334 333 333 333 333 333 333 333 333 333 333 333 334 334 334 334 334 335 334 334 334 333 333 332 331 331 330 329 327 327 327 328 330 330 330 332 332 333 333 333 334
331 333 334 333 333 332 332 334 334 334 333 333 332 332 333 333 333 333 332 332 332 333 334 334 333 334 334 334 334 334 334 334 334 333 332 331 331 330 328 327 327 327 327 330 331 332 332 333 333 333 333 333
326 329 332 332 332 332 332 333 333 334 333 333 333 332 333 333 333 332 332 332 332 333 334 334 333 333 333 333 333 334 333 333 332 332 332 331 330 329 328 327 328 328 328 329 331 331 332 332 333 333 332 332
320 322 325 328 331 331 332 332 331 332 333 333 332 332 332 332 332 332 332 332 332 333 333 333 333 333 333 332 332 332 332 331 331 331 331 330 329 328 328 327 327 328 329 329 330 331 332 332 332 333 332 331
319 320 323 327 331 331 331 331 331 331 331 331 331 330 331 331 332 331 332 332 332 332 332 332 332 332 332 331 331 331 331 331 330 329 330 329 328 327 328 328 327 328 329 330 331 332 332 332 332 334 332 330
319 324 328 330 330 330 330 329 328 329 329 330 329 329 329 330 330 331 331 331 331 331 331 331 331 330 331 331 330 330 330 330 329 329 328 328 328 328 327 328 328 329 330 330 332 332 333 333 333 334 331 329
319 323 327 329 329 327 326 325 325 327 328 329 329 328 328 328 328 329 329 329 330 330 329 329 329 329 329 330 329 329 328 328 328 328 327 327 327 328 327 327 328 329 328 329 330 329 330 332 333 332 330 331
320 322 323 325 327 327 326 325 324 325 326 328 329 328 327 327 327 327 327 326 326 326 327 327 327 327 327 327 326 323 322 322 321 320 320 321 320 320 321 323 323 321 321 322 322 320 322 326 329 331 331 332
Wind_Speed
22 20 20 20 21 21 21 21 21 22 22 21 21 22 21 19 17 15 14 13 11 9 8 6 6 8 10 13 14 11 11 10 8 8 8 9 9 11 12 12 13 13 12 12 10 9 10 9 8 8 6 5
23 22 21 20 21 21 21 21 21 22 22 21 21 22 21 20 18 16 14 13 12 10 8 7 6 8 9 11 14 13 11 10 8 7 7 8 8 8 9 10 11 12 12 11 10 9 9 9 8 8 6 4
24 23 22 21 21 21 21 21 21 21 22 22 22 22 22 20 19 17 15 14 13 11 9 7 6 7 8 10 14 13 12 11 9 8 8 8 8 7 7 8 8 8 8 9 9 9 8 8 7 6 6 3
24 25 24 23 22 22 22 22 21 22 22 23 23 23 22 20 19 18 16 15 14 13 11 8 7 7 8 10 12 12 13 13 11 11 11 9 8 8 8 8 7 7 6 6 7 7 7 6 6 4 3 2
24 25 25 24 24 23 23 22 22 22 22 23 23 23 23 21 20 19 18 17 16 14 12 10 7 7 8 10 12 12 13 15 14 13 13 11 10 9 10 9 8 7 6 6 6 7 7 6 5 3 2 1
22 23 25 25 25 24 24 23 22 23 24 24 23 24 23 23 22 20 20 19 17 16 14 11 8 7 8 10 12 13 14 15 15 14 13 11 11 11 11 9 8 8 7 7 7 7 7 7 6 4 1 4
21 22 24 25 25 25 24 24 24 24 24 24 24 24 24 24 22 21 20 20 18 17 16 12 10 8 8 10 11 12 13 14 14 13 13 12 13 13 12 10 9 8 6 7 9 10 9 8 8 5 3 7
20 21 23 25 26 25 25 25 25 25 25 25 25 25 24 24 22 21 21 20 19 19 17 14 11 10 9 9 10 11 12 12 12 11 10 9 9 9 10 11 10 7 6 7 8 10 10 9 9 8 6 7
19 20 21 23 25 25 25 26 27 26 26 26 27 25 23 22 22 24 23 21 21 20 19 16 14 12 11 10 11 11 11 12 11 9 7 5 4 3 4 5 5 6 7 7 6 7 8 7 8 9 10 11
19 19 20 21 22 23 25 27 27 26 26 27 28 27 24 23 23 24 24 22 22 21 20 19 17 14 12 11 11 11 11 10 9 8 6 5 4 4 6 6 4 5 6 6 6 6 6 8 10 11 11 12
18 19 20 21 22 23 24 26 27 26 27 27 28 29 26 25 24 24 24 21 21 22 22 21 18 16 14 12 11 10 10 10 7 6 6 6 4 3 6 7 6 5 6 7 6 6 8 10 12 13 12 12
18 19 20 20 21 22 23 24 25 25 27 26 27 30 27 24 23 24 23 20 20 22 22 21 19 17 15 13 12 11 12 13 9 7 8 8 6 5 8 8 7 7 6 7 7 7 8 8 9 10 11 11
18 19 20 20 20 20 21 22 22 23 26 25 24 28 27 23 23 23 22 20 20 21 22 22 20 18 16 16 15 12 12 15 12 9 9 11 9 8 9 8 8 8 7 6 6 7 7 6 7 7 7 8
18 18 20 21 21 19 18 21 20 21 24 24 22 24 25 24 23 22 21 20 20 21 22 22 22 22 20 19 18 15 14 14 13 11 11 11 10 9 9 8 7 7 7 7 7 7 7 7 8 7 7 7
19 19 20 20 21 20 18 20 19 20 22 21 21 20 22 24 22 21 20 20 19 20 22 23 25 25 22 20 17 16 16 15 14 12 11 11 11 9 9 9 8 8 8 8 8 8 8 9 10 9 8 8
21 21 23 20 20 19 19 20 19 20 20 19 18 18 19 21 22 21 19 18 18 18 19 20 23 24 22 20 17 16 16 15 15 14 12 11 11 10 10 9 8 9 10 9 9 9 9 10 10 8 7 8
24 23 24 24 22 19 18 21 21 20 20 18 18 18 17 18 20 20 18 16 16 17 18 16 17 20 19 18 18 17 16 15 16 16 14 12 12 11 10 11 9 8 9 10 10 10 10 11 11 8 7 8
26 25 25 24 25 22 18 19 21 21 21 20 19 19 18 18 18 18 17 16 16 16 17 16 16 17 17 17 18 18 17 17 16 16 15 12 12 12 11 12 11 9 10 11 11 11 11 12 12 10 9 11
23 26 26 23 25 25 21 18 19 20 21 22 21 19 19 19 19 19 19 17 16 16 17 16 16 17 17 17 19 19 17 18 18 16 15 13 13 12 12 13 13 12 12 12 13 12 11 11 11 10 10 11
20 23 23 23 25 26 24 21 20 21 20 21 21 21 19 19 20 21 20 18 16 16 18 18 17 17 18 19 20 19 18 18 19 18 16 15 15 13 12 13 13 13 13 14 14 13 12 12 12 12 11 10
19 21 21 23 24 25 25 24 24 23 21 19 19 20 20 18 18 20 20 19 18 17 17 18 18 16 17 20 22 21 20 18 18 19 17 15 15 14 13 14 14 13 14 15 15 14 14 15 15 15 15 14
17 21 22 21 23 24 24 24 24 22 21 21 20 20 21 20 18 19 20 20 20 19 17 17 17 17 16 18 20 20 20 18 16 17 17 15 14 14 13 14 13 14 15 15 15 15 16 15 14 15 17 17
15 19 21 22 22 22 22 22 23 22 22 23 24 21 21 22 20 20 20 21 21 20 19 18 18 19 18 17 18 18 19 18 16 17 18 16 14 13 14 15 14 14 13 14 16 17 17 16 16 16 16 17
15 18 21 22 22 22 21 21 21 22 21 22 23 23 24 23 21 21 22 22 22 21 20 19 19 20 19 19 20 20 19 17 17 18 18 17 15 13 13 14 16 15 13 13 16 17 18 17 17 17 18 19
16 18 20 20 22 23 22 21 21 21 20 19 18 20 25 26 22 19 20 22 23 22 21 20 17 17 17 19 20 22 21 19 17 16 17 17 16 15 14 14 15 16 15 14 13 14 16 18 19 19 19 21
18 20 20 20 21 21 20 21 22 21 21 20 18 15 20 25 25 22 19 21 23 22 22 21 19 15 14 14 16 18 18 17 16 15 14 14 14 15 16 16 15 14 15 15 12 10 9 12 17 20 23 25
20 19 20 19 18 17 18 18 19 19 20 21 20 17 17 20 23 23 20 19 21 21 20 20 20 17 14 12 12 14 14 15 15 14 13 13 14 13 13 16 16 15 16 16 14 10 6 5 6 11 17 24
20 19 18 19 18 17 17 17 16 17 18 18 18 18 18 18 20 20 19 19 19 19 19 17 17 17 15 13 11 12 12 12 12 13 13 14 15 14 12 13 15 17 19 19 14 7 3 3 3 4 8 15
21 20 19 18 18 16 15 14 15 16 16 17 17 16 16 18 19 20 19 19 19 19 18 17 16 16 16 15 13 11 11 10 9 9 11 12 14 14 13 14 15 15 17 21 21 15 7 3 2 3 4 7
22 22 21 20 19 18 17 16 17 19 20 20 19 18 16 15 16 17 17 17 18 18 17 17 17 16 16 15 13 10 8 7 5 5 6 6 7 8 9 11 11 8 8 11 14 16 15 13 11 6 5 5
24 24 24 23 22 21 21 20 20 21 22 22 21 20 19 16 15 15 14 13 13 14 15 15 14 13 14 14 13 10 8 6 4 3 3 4 3 2 2 1 3 5 6 5 7 11 14 17 19 17 12 6
Wind_Direction
190 190 192 190 186 186 187 188 189 191 192 186 183 185 185 186 188 188 182 178 179 177 161 144 151 162 175 178 169 167 177 179 174 171 165 160 161 164 167 169 172 177 181 185 188 187 181 180 183 176 166 156
195 195 195 195 194 192 193 192 192 193 194 190 185 186 188 190 192 191 186 184 185 183 170 148 150 163 171 178 172 171 179 182 178 175 176 174 169 168 173 175 176 180 185 189 190 188 183 183 187 183 175 159
199 201 200 200 199 197 197 196 196 195 194 193 190 189 190 192 193 194 191 189 191 187 176 157 148 162 170 176 172 171 179 181 180 183 184 187 186 182 185 187 181 181 185 186 188 188 188 191 192 194 191 182
201 204 204 205 204 203 201 199 199 197 196 197 194 191 192 193 193 197 196 192 194 190 182 166 151 160 165 174 177 174 181 180 177 187 187 188 196 201 206 202 193 192 192 191 194 192 192 194 190 186 182 203
203 205 206 207 207 207 206 203 202 200 201 200 196 195 195 196 196 197 198 196 195 192 187 174 157 162 160 167 180 179 184 187 187 195 198 198 201 210 221 220 211 206 207 210 209 208 205 198 188 161 128 254
204 208 208 208 209 208 208 206 205 204 205 203 198 198 198 199 201 196 196 199 198 194 191 183 165 166 163 158 174 181 187 193 198 205 209 210 209 212 221 223 222 219 222 229 226 223 220 214 194 161 208 258
202 208 211 212 211 210 208 206 207 206 206 204 201 202 200 202 204 195 196 203 203 197 192 189 177 170 167 158 162 173 183 192 201 210 214 221 223 226 229 229 230 228 241 255 245 235 230 229 211 188 247 262
204 211 215 214 210 210 209 207 208 207 207 206 204 206 204 204 202 196 197 200 203 200 191 189 188 176 169 165 160 164 171 178 189 200 206 215 223 231 235 233 228 220 246 267 255 245 239 239 231 217 232 249
204 208 210 206 204 205 207 207 208 207 207 206 205 207 207 204 201 200 199 198 200 197 191 190 191 185 177 173 169 168 168 166 171 179 174 164 162 159 170 196 204 203 226 245 247 246 242 238 240 234 229 230
198 202 197 192 194 197 201 206 208 207 208 207 206 209 207 206 207 205 203 201 198 191 189 193 192 189 187 184 179 176 174 164 160 166 156 134 127 133 139 145 181 212 212 220 234 234 230 226 224 233 236 233
195 196 189 187 190 191 198 204 208 209 210 211 210 210 204 202 208 209 206 204 200 193 191 193 193 194 194 190 184 179 181 179 171 174 174 158 137 147 172 173 185 210 208 205 212 212 224 232 230 232 236 238
194 193 187 191 195 195 200 205 211 212 212 213 214 214 206 198 204 210 211 209 203 197 195 194 193 199 199 194 192 183 184 195 194 184 194 192 174 172 188 194 200 215 228 223 216 219 228 239 248 243 233 233
194 195 190 193 196 201 206 208 212 213 214 213 212 217 213 204 204 206 207 207 204 199 196 196 195 198 196 196 200 190 184 198 200 188 192 198 193 193 203 216 225 229 233 235 235 244 249 250 262 263 248 239
192 195 194 195 193 197 206 207 209 208 211 209 205 211 213 210 209 204 200 200 202 201 199 199 200 198 194 198 200 191 186 192 197 197 194 198 204 207 212 215 222 231 231 239 244 247 254 255 258 260 264 266
193 196 196 196 194 195 200 200 205 206 205 205 204 206 207 207 206 204 200 198 200 200 202 204 205 202 198 201 200 191 191 189 191 199 198 201 207 211 217 218 222 230 233 245 251 248 250 254 254 244 243 263
201 204 199 194 190 195 200 198 201 204 201 203 207 209 208 207 205 203 202 203 204 201 202 206 210 210 205 205 206 197 191 190 192 196 197 195 197 203 213 216 220 229 235 244 246 247 250 257 261 243 227 243
210 211 206 200 193 192 198 201 200 198 197 200 203 205 208 210 209 206 204 206 210 206 204 206 209 211 206 207 210 202 193 195 198 197 200 200 200 209 211 206 207 220 234 241 240 239 240 249 260 253 238 245
216 214 214 211 205 197 192 200 204 200 197 196 198 203 205 206 208 210 208 205 207 208 210 210 209 208 206 208 208 204 199 199 202 201 202 204 210 219 222 215 212 221 235 242 242 236 233 239 247 247 240 242
223 219 220 220 219 211 198 195 201 201 200 197 196 201 204 206 207 208 210 207 205 208 209 208 209 210 210 208 207 209 208 204 207 208 205 207 212 218 226 225 220 225 235 240 242 241 240 243 247 249 239 230
231 223 220 221 223 217 208 206 205 202 202 202 199 199 204 209 208 207 207 206 207 210 211 211 210 215 218 215 211 211 211 210 212 214 211 211 216 217 224 232 228 228 232 234 238 243 244 246 251 257 256 239
242 233 226 226 226 216 213 215 210 204 203 205 206 204 205 210 212 212 207 203 207 210 212 215 213 216 221 217 213 209 209 213 217 218 214 211 218 220 220 230 233 232 234 235 236 238 241 243 242 246 252 252
249 239 230 233 234 226 223 219 212 208 204 201 205 208 210 211 213 214 209 205 207 210 211 214 215 214 212 207 207 208 210 213 213 215 212 206 213 218 218 225 233 236 237 238 238 241 244 244 240 239 241 245
256 246 236 236 239 238 238 231 224 221 215 207 204 206 209 211 213 213 209 208 210 213 213 215 217 216 212 206 204 206 209 210 210 210 211 208 209 216 224 226 230 238 243 242 241 241 243 241 242 242 242 244
254 249 245 243 243 244 244 236 228 226 225 220 215 216 216 212 212 213 211 209 209 212 213 216 220 223 224 220 213 209 207 209 211 210 211 213 211 215 226 230 233 237 242 253 250 242 244 245 246 246 245 247
241 238 239 241 240 242 243 236 226 221 218 218 217 216 214 213 209 207 210 212 210 210 211 213 215 219 225 227 223 218 213 211 210 210 213 216 216 218 224 230 240 241 239 256 262 249 249 252 250 248 247 246
230 233 236 237 238 239 240 238 231 223 214 215 218 205 196 202 203 198 199 204 207 209 210 211 209 207 213 224 230 227 222 219 217 215 213 213 214 218 226 231 239 242 234 241 252 251 258 261 255 251 249 248
221 227 231 234 238 238 237 237 235 229 220 220 225 213 192 190 195 197 195 193 196 200 204 208 209 207 204 208 221 227 227 226 224 220 214 213 215 214 224 232 234 235 231 231 240 246 251 255 261 256 247 246
221 223 226 229 233 234 230 231 233 230 227 230 228 215 200 192 191 195 196 193 192 195 198 201 204 207 206 201 207 216 214 211 212 215 217 220 221 219 223 235 236 233 231 232 235 238 240 232 256 264 241 237
222 219 218 217 217 216 214 213 217 216 216 226 231 221 207 199 196 195 198 201 201 200 201 203 204 205 207 203 203 207 200 193 195 203 212 218 223 226 232 245 249 241 232 233 234 233 234 236 232 256 262 252
223 217 213 208 200 197 195 193 200 208 206 208 218 224 219 210 206 202 202 205 205 206 209 211 211 210 208 202 197 194 190 186 179 178 186 191 203 217 232 242 246 256 257 248 248 250 256 262 258 266 310 314
226 221 218 215 210 208 204 198 198 205 204 198 198 209 215 214 215 214 212 211 209 208 207 203 198 193 191 187 177 161 148 145 126 104 99 88 80 58 14 33 99 49 16 3 353 337 323 308 289 277 272 274